GSAT0207 (GALILEO 15)

Last updated on Sun Mar 15 2026 00:02:40 GMT+0000 (Coordinated Universal Time)

1 41859U 16069A 26072.71887421 .00000034 00000+0 00000+0 0 9999 2 41859 55.4358 103.7267 0005361 309.9075 50.1195 1.70474457 57779
UTC large
Height (km)
Speed (km/s)
/
Latitude / Longitude
Inclination (degrees)
Orbital Period (minutes)
Azimuth
Elevation
Range (km)
Doppler Factor

Next 0 passes for location: London (51.5072 / 0.1276)

Sorry there are no passes over London.